Regional Weather Roundup
Issued by NWS

Home | Current Version | Previous Version | Graphics & Text | Print | Product List | Glossary On
Versions: 1 2 3 4 5 6 7 8 9 10 11 12 13 14 15 16 17 18 19 20 21 22 23 24 25 26 27 28 29 30 31 32 33 34 35 36 37 38 39 40 41 42 43 44 45 46 47 48 49 50
000
ASUS45 KBOU 270610
RWRCO

WEATHER ROUNDUP FOR COLORADO
NATIONAL WEATHER SERVICE DENVER/BOULDER CO
1200 AM MDT TUE SEP 27 2016

NOTE: "FAIR" INDICATES FEW OR NO CLOUDS BELOW 12000 FEET WITH NO
SIGNIFICANT WEATHER AND/OR OBSTRUCTIONS TO VISIBILITY.

COZ001>005-013-030-031-270700-
...NORTHWEST COLORADO...

CITY           SKY/WX    TMP DP  RH WIND       PRES   REMARKS
CRAIG          FAIR      41  36  82 CALM      30.37S
HAYDEN         FAIR      46  30  53 SE6       30.38R
MEEKER         FAIR      44  38  79 E3        30.37F
MOUNT WERNER   NOT AVBL
STEAMBOAT SPGS FAIR      45  33  65 CALM      30.40S
WALDEN           N/A     34  28  80 E8        30.48S WCI  27
$$

COZ006>008-011-270700-
...WEST CENTRAL VALLEYS...

CITY           SKY/WX    TMP DP  RH WIND       PRES   REMARKS
GRAND JUNCTION FAIR      57  40  52 SE6       30.26R
MONTROSE       FAIR      51  38  60 SE9       30.34S
EAGLE          FAIR      46  30  53 SE3       30.40S
RIFLE          FAIR      52  39  61 CALM      30.32R
DELTA          NOT AVBL
NUCLA          NOT AVBL
$$

COZ017>023-064>068-270700-
...SOUTHWEST COLORADO...

CITY           SKY/WX    TMP DP  RH WIND       PRES   REMARKS
DURANGO        FAIR      46  37  71 N5        30.39R
CORTEZ         FAIR      46  39  76 NE5       30.33R
PAGOSA SPRINGS FAIR      46  35  67 NE5       30.45R
TELLURIDE      FAIR      46  35  65 SE6       30.53S
WOLF CREEK PAS FAIR      41  28  60 MISG      30.69S
$$

COZ009-010-012-014-032>034-037-058>063-270700-
...CENTRAL COLORADO...

CITY           SKY/WX    TMP DP  RH WIND       PRES   REMARKS
ASPEN          FAIR      44  32  62 S6        30.43F
BUENA VISTA    FAIR      40  24  52 W5        30.47S
COPPER MTN     FAIR      45  21  39 CALM      30.67F
BERTHOUD PASS  FAIR      36  23  60 N5        30.69F
COTTONWOOD PAS FAIR      52  21  30 CALM      30.56F
GUNNISON       FAIR      42  33  70 N5        30.45R
KREMMLING      FAIR      41  25  52 CALM      30.44S
LEADVILLE      FAIR      39  22  50 E3        30.55S
MONARCH PASS   FAIR      43  19  39 S9        30.77F
SALIDA         FAIR      47  27  46 W7        30.52S
SUNLIGHT       FAIR      45  30  57 NE3       30.62F
WILKERSON PASS FAIR      41  23  48 SW8       30.67S
$$

COZ069>075-270700-
...SAN LUIS VALLEY/SANGRE DE CRISTO MOUNTAINS...

CITY           SKY/WX    TMP DP  RH WIND       PRES   REMARKS
ALAMOSA        FAIR      45  32  60 SE8       30.41S
LA VETA PASS   FAIR      45  30  57 MISG      30.56F
SAGUACHE       NOT AVBL
$$

COZ035-036-038>040-270700-
...NORTHERN COLORADO FRONT RANGE...

CITY           SKY/WX    TMP DP  RH WIND       PRES   REMARKS
DENVER INTL AP FAIR      47  28  47 S6        30.32F
DMNS CITY PARK   N/A     53  39  59 SW1G7     30.32S
AURORA         CLEAR     53  32  44 NW1       30.33S
FRONT RANGE AP NOT AVBL
ERIE MUNI ARPT FAIR      46  33  61 S3        30.32S
BOULDER MUN AP FAIR      54  34  47 W3        30.33S
CENTENNIAL     FAIR      52  30  43 S5        30.33F
BROOMFIELD     FAIR      57  32  38 NW12      30.34S
FORT COLLINS   FAIR      57  37  47 CALM      30.32F
LONGMONT       FAIR      55  37  50 N5        30.34S
$$

COZ041-046-047-076>085-087-088-270700-
...PIKES PEAK/PALMER DIVIDE AND SOUTHERN FOOTHILLS...

CITY           SKY/WX    TMP DP  RH WIND       PRES   REMARKS
COLO. SPRINGS  FAIR      50  30  46 NE3       30.38S
A. F. ACADEMY  FAIR      43  29  56 N9        30.38F
SCHRIEVER AFB  NOT AVBL
ELLICOTT       NOT AVBL
FALCON         FAIR      46  31  56 CALM      30.41F
FORT CARSON    FAIR      51  31  46 NW7       30.35S
LIMON          FAIR      41  27  57 CALM      30.33S
MONUMENT HILL  FAIR      41  28  60 S7        30.41F
TRINIDAD       FAIR      53  34  48 W13       30.32F
$$

COZ042>045-048>051-090-091-270700-
...NORTHEAST COLORADO...

CITY           SKY/WX    TMP DP  RH WIND       PRES   REMARKS
GREELEY ARPT   FAIR      48  37  66 NW8       30.31F
AKRON          FAIR      52  36  54 S7        30.28F
BURLINGTON     FAIR      48  40  73 SW7       30.27S
WRAY           FAIR      50  37  62 W7        30.24
STERLING       FAIR      45  37  76 SW6       30.25F
HOLYOKE        FAIR      54  43  66 W6        30.24F
FORT MORGAN    FAIR      52  35  52 CALM      30.28F
$$

COZ086-089-092>099-270700-
...SOUTHEAST COLORADO...

CITY           SKY/WX    TMP DP  RH WIND       PRES   REMARKS
PUEBLO         FAIR      51  28  41 CALM      30.29S
LA JUNTA       FAIR      52  32  46 N6        30.25F
LAMAR          FAIR      50  34  54 CALM      30.22S
SPRINGFIELD    NOT AVBL
$$



USA.gov is the U.S. government's official web portal to all federal, state and local government web resources and services.